Time,TemperatureF,DewpointF,PressureIn,WindDirection,WindDirectionDegrees,WindSpeedMPH,WindSpeedGustMPH,Humidity,HourlyPrecipIn,Conditions,Clouds,dailyrainin,SoftwareType,DateUTC
2013-09-06 00:00:00,59.4,50.0,29.96,North,10,0.0,0.0,71,0.00,,---,0.00,VWS V14.01,2013-09-06 07:00:00,
2013-09-06 00:20:00,59.9,50.9,29.96,North,10,0.0,0.0,72,0.00,,---,0.00,VWS V14.01,2013-09-06 07:20:00,
2013-09-06 00:40:00,59.5,50.1,29.96,North,357,0.0,2.7,71,0.00,,---,0.00,VWS V14.01,2013-09-06 07:40:00,
2013-09-06 01:00:00,58.5,48.7,29.93,North,357,0.0,0.0,70,0.00,,---,0.00,VWS V14.01,2013-09-06 08:00:00,
2013-09-06 01:20:00,58.3,49.3,29.93,North,357,0.0,0.0,72,0.00,,---,0.00,VWS V14.01,2013-09-06 08:20:00,
2013-09-06 01:40:00,58.6,50.4,29.93,North,357,0.0,0.0,74,0.00,,---,0.00,VWS V14.01,2013-09-06 08:40:00,
2013-09-06 02:00:00,59.7,50.3,29.93,North,357,0.0,0.0,71,0.00,,---,0.00,VWS V14.01,2013-09-06 09:00:00,
2013-09-06 02:20:00,59.5,49.0,29.93,North,357,0.0,0.0,68,0.00,,---,0.00,VWS V14.01,2013-09-06 09:20:00,
2013-09-06 02:40:00,60.6,49.6,29.93,North,357,0.0,0.0,67,0.00,,---,0.00,VWS V14.01,2013-09-06 09:40:00,
2013-09-06 03:00:00,60.4,49.0,29.93,North,357,0.0,0.0,66,0.00,,---,0.00,VWS V14.01,2013-09-06 10:00:00,
2013-09-06 03:20:00,61.0,49.2,29.93,North,357,0.0,0.0,65,0.00,,---,0.00,VWS V14.01,2013-09-06 10:20:00,
2013-09-06 03:40:00,60.3,48.5,29.93,North,357,0.0,0.0,65,0.00,,---,0.00,VWS V14.01,2013-09-06 10:40:00,
2013-09-06 04:00:00,59.2,47.8,29.93,North,357,0.0,0.0,66,0.00,,---,0.00,VWS V14.01,2013-09-06 11:00:00,
2013-09-06 04:20:00,58.6,48.1,29.93,North,357,0.0,0.0,68,0.00,,---,0.00,VWS V14.01,2013-09-06 11:20:00,
2013-09-06 04:40:00,58.8,47.9,29.93,North,357,0.0,0.0,67,0.00,,---,0.00,VWS V14.01,2013-09-06 11:40:00,
2013-09-06 05:00:00,58.1,47.2,29.93,North,357,0.0,0.0,67,0.00,,---,0.00,VWS V14.01,2013-09-06 12:00:00,
2013-09-06 05:20:00,57.9,47.4,29.93,North,357,0.0,0.0,68,0.00,,---,0.00,VWS V14.01,2013-09-06 12:20:00,
2013-09-06 05:40:00,57.9,47.4,29.93,North,357,0.0,0.0,68,0.00,,---,0.00,VWS V14.01,2013-09-06 12:40:00,
2013-09-06 06:00:00,57.6,46.3,29.93,North,357,0.0,0.0,66,0.00,,---,0.00,VWS V14.01,2013-09-06 13:00:00,
2013-09-06 06:20:00,58.1,46.8,29.93,North,357,0.0,0.0,66,0.00,,---,0.00,VWS V14.01,2013-09-06 13:20:00,
2013-09-06 06:40:00,57.9,45.8,29.93,North,357,0.0,0.0,64,0.00,,---,0.00,VWS V14.01,2013-09-06 13:40:00,
2013-09-06 07:00:00,60.3,45.4,29.93,North,357,0.0,0.0,58,0.00,,---,0.00,VWS V14.01,2013-09-06 14:00:00,
2013-09-06 07:20:00,63.9,47.9,29.93,North,357,0.0,0.0,56,0.00,,---,0.00,VWS V14.01,2013-09-06 14:20:00,
2013-09-06 07:40:00,65.3,48.2,29.93,North,357,0.0,0.0,54,0.00,,---,0.00,VWS V14.01,2013-09-06 14:40:00,
2013-09-06 08:00:00,66.2,48.1,29.93,North,357,0.0,0.0,52,0.00,,---,0.00,VWS V14.01,2013-09-06 15:00:00,
2013-09-06 08:20:00,70.0,47.1,29.96,North,357,0.0,0.0,44,0.00,,---,0.00,VWS V14.01,2013-09-06 15:20:00,
2013-09-06 08:40:00,74.1,48.9,29.96,North,357,0.0,0.0,41,0.00,,---,0.00,VWS V14.01,2013-09-06 15:40:00,
2013-09-06 09:00:00,77.0,52.8,29.96,North,357,0.0,2.7,43,0.00,,---,0.00,VWS V14.01,2013-09-06 16:00:00,
2013-09-06 09:20:00,80.2,53.8,29.96,WNW,288,2.2,4.0,40,0.00,,---,0.00,VWS V14.01,2013-09-06 16:20:00,
2013-09-06 09:40:00,82.8,56.7,29.96,SW,225,3.6,4.5,41,0.00,,---,0.00,VWS V14.01,2013-09-06 16:40:00,
2013-09-06 10:00:00,84.6,58.3,29.96,SSW,210,3.6,6.3,41,0.00,,---,0.00,VWS V14.01,2013-09-06 17:00:00,
2013-09-06 10:20:00,87.8,60.5,29.96,South,190,6.3,8.1,40,0.00,,---,0.00,VWS V14.01,2013-09-06 17:20:00,
2013-09-06 10:40:00,90.0,62.4,29.96,SSE,154,2.7,6.3,40,0.00,,---,0.00,VWS V14.01,2013-09-06 17:40:00,
2013-09-06 11:00:00,90.7,64.5,29.96,SE,140,3.1,10.5,42,0.00,,---,0.00,VWS V14.01,2013-09-06 18:00:00,
2013-09-06 11:20:00,92.1,65.8,29.96,NNE,31,3.1,11.0,42,0.00,,---,0.00,VWS V14.01,2013-09-06 18:20:00,
2013-09-06 11:40:00,89.2,63.8,29.96,ESE,117,2.7,9.6,43,0.00,,---,0.00,VWS V14.01,2013-09-06 18:40:00,
2013-09-06 12:00:00,86.7,61.6,29.96,SSW,192,2.7,5.8,43,0.00,,---,0.00,VWS V14.01,2013-09-06 19:00:00,
2013-09-06 12:20:00,87.6,62.4,29.96,SSE,164,3.6,5.4,43,0.00,,---,0.00,VWS V14.01,2013-09-06 19:20:00,
2013-09-06 12:40:00,87.1,61.9,29.93,South,184,0.0,8.3,43,0.00,,---,0.00,VWS V14.01,2013-09-06 19:40:00,
2013-09-06 13:00:00,84.7,59.8,29.93,SSW,200,3.1,8.3,43,0.00,,---,0.00,VWS V14.01,2013-09-06 20:00:00,
2013-09-06 13:20:00,73.9,51.9,29.93,NW,319,0.0,8.1,46,0.00,,---,0.00,VWS V14.01,2013-09-06 20:20:00,
2013-09-06 13:40:00,70.0,52.1,29.93,NNE,30,3.6,5.8,53,0.00,,---,0.00,VWS V14.01,2013-09-06 20:40:00,
2013-09-06 14:00:00,71.2,52.7,29.96,NNE,19,8.3,8.3,52,0.00,,---,0.00,VWS V14.01,2013-09-06 21:00:00,
2013-09-06 14:20:00,72.1,51.9,29.96,WSW,251,0.0,8.3,49,0.00,,---,0.00,VWS V14.01,2013-09-06 21:20:00,
2013-09-06 14:40:00,74.5,52.4,29.96,North,9,3.1,3.6,46,0.00,,---,0.00,VWS V14.01,2013-09-06 21:40:00,
2013-09-06 15:00:00,74.7,52.5,29.93,NNW,333,0.0,5.4,46,0.00,,---,0.00,VWS V14.01,2013-09-06 22:00:00,
2013-09-06 15:20:00,72.3,52.1,29.93,North,353,0.0,2.7,49,0.00,,---,0.00,VWS V14.01,2013-09-06 22:20:00,
2013-09-06 15:40:00,71.1,52.6,29.93,North,9,3.6,5.4,52,0.00,,---,0.00,VWS V14.01,2013-09-06 22:40:00,
2013-09-06 16:00:00,71.6,48.6,29.93,SE,124,3.1,4.9,44,0.00,,---,0.00,VWS V14.01,2013-09-06 23:00:00,
2013-09-06 16:20:00,71.6,49.8,29.93,ESE,122,0.0,3.6,46,0.00,,---,0.00,VWS V14.01,2013-09-06 23:20:00,
2013-09-06 16:40:00,72.3,49.2,29.93,North,353,0.0,4.5,44,0.00,,---,0.00,VWS V14.01,2013-09-06 23:40:00,
2013-09-06 17:00:00,72.9,52.6,29.90,North,0,4.0,5.4,49,0.00,,---,0.00,VWS V14.01,2013-09-07 00:00:00,
2013-09-06 17:20:00,74.3,53.4,29.90,NNW,338,2.7,5.4,48,0.00,,---,0.00,VWS V14.01,2013-09-07 00:20:00,
2013-09-06 17:40:00,73.9,51.9,29.90,North,0,2.2,4.0,46,0.00,,---,0.00,VWS V14.01,2013-09-07 00:40:00,
2013-09-06 18:00:00,73.8,51.7,29.90,NNW,331,3.1,4.9,46,0.00,,---,0.00,VWS V14.01,2013-09-07 01:00:00,
2013-09-06 18:20:00,71.2,51.1,29.90,NNW,342,0.0,3.6,49,0.00,,---,0.00,VWS V14.01,2013-09-07 01:20:00,
2013-09-06 18:40:00,69.6,50.2,29.90,NNW,342,0.0,0.0,50,0.00,,---,0.00,VWS V14.01,2013-09-07 01:40:00,
2013-09-06 19:00:00,68.2,48.8,29.90,NNW,342,0.0,0.0,50,0.00,,---,0.00,VWS V14.01,2013-09-07 02:00:00,
2013-09-06 19:20:00,66.4,49.2,29.90,NNW,342,0.0,0.0,54,0.00,,---,0.00,VWS V14.01,2013-09-07 02:20:00,
2013-09-06 19:40:00,64.9,48.9,29.90,NNW,342,0.0,0.0,56,0.00,,---,0.00,VWS V14.01,2013-09-07 02:40:00,
2013-09-06 20:00:00,65.1,48.1,29.90,North,10,0.0,3.1,54,0.00,,---,0.00,VWS V14.01,2013-09-07 03:00:00,
2013-09-06 20:20:00,64.2,47.7,29.90,North,10,0.0,0.0,55,0.00,,---,0.00,VWS V14.01,2013-09-07 03:20:00,
2013-09-06 20:40:00,64.2,47.7,29.93,North,357,0.0,3.1,55,0.00,,---,0.00,VWS V14.01,2013-09-07 03:40:00,
2013-09-06 21:00:00,62.1,48.0,29.93,North,357,0.0,0.0,60,0.00,,---,0.00,VWS V14.01,2013-09-07 04:00:00,
2013-09-06 21:20:00,61.0,48.7,29.93,North,357,0.0,0.0,64,0.00,,---,0.00,VWS V14.01,2013-09-07 04:20:00,
2013-09-06 21:40:00,61.5,49.2,29.93,North,357,0.0,3.1,64,0.00,,---,0.00,VWS V14.01,2013-09-07 04:40:00,
2013-09-06 22:00:00,61.5,48.8,29.93,North,357,0.0,2.2,63,0.00,,---,0.00,VWS V14.01,2013-09-07 05:00:00,
2013-09-06 22:20:00,61.2,48.9,29.93,North,357,0.0,0.0,64,0.00,,---,0.00,VWS V14.01,2013-09-07 05:20:00,
2013-09-06 22:40:00,61.3,48.2,29.93,North,357,0.0,0.0,62,0.00,,---,0.00,VWS V14.01,2013-09-07 05:40:00,
2013-09-06 23:00:00,62.4,47.0,29.93,North,357,0.0,0.0,57,0.00,,---,0.00,VWS V14.01,2013-09-07 06:00:00,
2013-09-06 23:20:00,63.9,46.9,29.93,North,353,0.0,2.7,54,0.00,,---,0.00,VWS V14.01,2013-09-07 06:20:00,
2013-09-06 23:40:00,64.0,46.6,29.93,North,353,0.0,2.2,53,0.00,,---,0.00,VWS V14.01,2013-09-07 06:40:00,